Showing default

IRIDE-MS1-EAG2-16, 68452

Orbit data source: Space-Track

IRIDE-MS1-EAG2-16, 68452 is an Italian payload satellite in SSO that was launched on Mon, 30 Mar 2026 UTC via an FALCON 9 launch vehicle from the Air Force Western Test Range (AFWTR). Payload-class satellites include a variety of spacecraft equipped with specific instruments for various scientific and technological missions. These include communications satellites like Starlink; space stations such as the ISS; scientific satellites like the Hubble; Earth observation satellites from companies like Planet Labs, Umbra, and HawkEye 360; GPS; miniature CubeSats for education and research; and military/defense satellites.

Loading next visibility...
Identifier
68452, 2026-067AN
Orbit
SSO
Country
Flag of ITIT
Related business
Manufacturer
OHB-I
Mission
Operational Commercial Technology
Bus & Motor
EAGLET, Unknown motor
Mass
25 kg wet, 25 kg dry
Launch date (UTC)
2026-03-30 (5 months ago)
Launch vehicle
FALCON 9
Launch site
Air Force Western Test Range (AFWTR)
Object type
Payload
Rocket body
Debris
Shape & HBR
Box + 2 Pan, 1.0 m
Radar Cross Section
0.368 m², Medium (>0.1 m² and < 1m²)

Expand to show TLE details & history
Last TLE update: 1 day ago

TLE from 1 day ago
0 IRIDE-MS1-EAG2-16
1 68452U 26067AN  26234.85106254  .00006035  00000-0  29311-3 0  9997
2 68452  97.4595 192.3539 0004218 159.8036 200.3365 15.18816835 22059
Epoch: 2026-08-22T20:25Z
TLE epoch observation values (Epoch: 2026-08-22T20:25:31.803Z)
Latitude
-0.00012°
Longitude
-85.18414°
Altitude
515.227 km
Speed
7.605 km/s
True Right ascension
12h 49m 24s
True Declination
0° 00' 00"
Sunlit
Object was in daylight at epoch
Visualization orbit readout
Latitude
Unknown
Longitude
Unknown
Altitude
Unknown
Speed
Unknown
Apparent Right ascension
Unknown
Apparent Declination
Unknown
Sunlit
N/A
Visualization observer readout
Local Sidereal Time
20:03:26
Azimuth
Unknown
Elevation
Unknown
Doppler factor
Unknown
Orbital elements
Apogee altitude
509.289 km
Perigee altitude
503.481 km
Semi-major axis
6,884.522 km
Eccentricity
0.00042
Inclination
97.4595°
RAAN
192.3539°
Arg. of periapsis
159.8036°
True anomaly
200.31971°
Mean anomaly
200.3365°
Eccentric anomaly
200.3281°
Mean motion
3.79955 °/min
Orbital period
94.75 mins
BSTAR
0.00029311
Loading maneuver chart data...
Computing Atmospheric mass density...
Loading historical data...
Loading historical data...
Loading historical data...
Loading historical data...
Loading historical data...
Loading historical data...
Loading historical data...

Documentation

Showing up to 5 results
|